Temperature
24 23 22 21 20 21 24 27 29 30 29 29 29 28 27 26 25 23 23 23 23 23 22 21 21 21 21 21 21 21 21 21 21 21 21 21 20 20 20 20 20 20 20 20 20 20 20 21 20
24 23 22 21 22 23 25 27 28 29 29 29 28 28 27 24 23 23 22 23 23 23 22 21 21 21 21 21 21 21 21 21 21 21 21 21 21 21 21 20 20 20 20 20 21 21 21 21 21
25 24 22 21 23 24 25 26 27 29 29 30 28 28 27 24 23 24 24 23 24 24 23 22 22 21 21 21 21 21 21 21 21 21 21 21 21 21 21 21 21 21 21 21 21 21 21 21 21
25 24 23 22 25 25 26 27 27 28 29 29 28 27 26 25 25 25 24 24 24 24 23 22 22 22 21 21 21 21 21 21 21 21 21 21 21 21 21 21 21 21 21 21 21 21 21 21 21
25 24 23 23 25 27 27 28 27 27 28 28 27 26 25 26 26 25 24 24 25 24 23 22 22 22 22 21 21 21 21 21 21 21 20 20 20 20 20 20 20 20 20 20 20 20 20 20 20
25 23 23 24 26 29 28 27 27 26 26 27 27 26 25 25 26 25 25 25 25 25 24 23 22 22 22 21 21 21 21 21 21 20 20 20 20 20 20 20 20 20 20 20 20 20 20 20 20
26 23 24 25 26 28 28 27 27 26 26 27 27 25 24 24 25 25 25 25 25 25 24 23 23 22 22 22 21 21 21 21 21 21 20 20 20 20 20 20 20 20 20 20 20 20 20 20 20
28 23 25 25 27 28 28 28 28 27 26 27 27 25 25 24 24 24 24 25 25 25 25 24 23 23 22 22 22 21 21 21 21 21 21 21 20 20 20 20 20 20 19 20 20 20 20 20 20
28 23 23 25 27 28 28 27 28 28 27 26 27 27 27 26 25 24 24 24 24 24 24 24 24 23 23 22 22 21 21 21 21 21 21 21 20 20 20 20 19 19 19 19 19 19 19 19 19
26 22 24 27 28 29 29 29 28 27 26 25 26 28 28 26 25 24 24 24 24 24 24 24 24 24 23 22 22 22 21 21 21 21 21 21 20 20 20 19 19 18 18 18 18 19 19 19 19
26 25 26 28 30 30 30 30 29 28 25 25 26 27 27 27 26 25 24 24 24 24 24 23 23 23 23 22 22 22 21 21 21 21 20 20 20 19 19 19 19 18 18 18 18 18 18 18 19
27 26 28 29 30 30 30 30 29 28 28 29 29 29 28 27 26 25 25 24 24 24 23 22 22 23 22 22 22 21 21 20 20 20 20 19 19 19 19 19 18 18 18 18 18 18 18 18 18
27 27 29 30 30 30 30 30 29 29 29 28 28 28 28 27 26 25 25 24 24 23 22 22 22 22 22 21 21 21 20 20 20 20 19 19 19 19 19 18 18 18 18 18 18 18 18 18 18
26 27 27 29 30 30 29 29 29 29 28 26 26 26 26 26 25 24 24 23 22 21 20 20 21 21 21 21 21 20 20 20 19 19 19 19 19 18 18 18 18 18 18 18 17 17 17 17 17
27 25 25 27 28 29 28 27 28 30 28 25 25 25 25 24 23 22 22 21 21 20 20 19 19 19 20 20 20 20 20 20 19 19 19 19 18 18 18 18 18 18 17 17 17 17 17 17 17
25 24 24 26 27 28 27 26 27 28 26 25 24 23 22 21 21 21 21 20 20 20 19 19 18 18 19 19 20 20 20 19 19 19 19 19 18 18 18 18 18 17 17 17 17 17 17 17 17
23 23 24 26 27 27 26 25 25 25 24 22 22 21 19 19 20 20 20 19 19 19 19 19 19 17 18 19 19 19 19 19 19 19 19 19 19 19 18 18 18 17 17 17 17 17 17 16 16
23 24 25 26 27 26 25 22 21 20 19 18 18 17 17 17 17 18 19 19 19 19 19 19 18 17 16 18 18 19 19 19 19 19 19 19 19 19 18 18 17 17 17 17 16 16 16 16 16
26 26 26 27 27 25 22 19 18 18 17 16 16 15 15 15 16 17 18 18 19 19 19 19 18 17 17 17 17 18 18 19 19 19 19 19 19 19 18 18 17 17 17 16 16 16 16 16 16
26 26 25 26 27 26 21 19 18 17 16 15 15 14 14 14 14 15 16 17 18 18 18 18 17 17 17 17 17 18 18 19 19 19 19 19 19 19 18 18 18 17 17 17 16 16 16 16 16
26 26 26 26 25 24 23 19 18 17 17 16 15 14 13 13 14 15 16 17 17 17 17 16 16 17 17 17 17 18 19 19 19 19 19 19 19 19 18 18 18 18 17 17 17 16 16 16 15
25 27 27 26 24 21 22 19 17 17 16 16 15 14 14 14 14 15 15 16 15 15 15 16 16 16 17 17 18 18 18 19 19 18 18 18 18 18 18 18 18 18 18 17 17 16 16 16 15
27 26 25 24 23 21 20 19 17 17 16 15 15 14 14 14 14 15 15 15 15 15 15 15 15 16 16 16 17 17 18 18 18 18 18 18 18 18 18 18 18 18 18 17 17 17 16 16 15
27 24 22 19 19 20 19 18 17 16 15 15 15 15 15 15 15 15 15 15 15 15 15 15 15 15 15 15 16 16 16 16 17 17 17 17 17 17 17 17 17 17 17 17 17 17 16 16 16
25 21 19 20 18 19 19 17 16 16 16 16 15 15 15 15 15 15 15 15 15 15 15 15 15 15 15 15 15 15 15 15 15 15 15 16 16 16 16 16 16 17 17 17 17 17 16 16 16
25 21 20 20 19 18 18 17 16 16 16 16 16 16 15 15 15 15 15 15 15 15 15 15 14 14 14 14 14 14 14 14 14 14 14 14 14 14 15 15 16 16 16 16 16 16 16 16 16
25 22 21 19 20 18 17 16 16 15 16 16 16 16 16 15 15 15 15 15 15 15 14 14 14 14 13 13 13 13 13 13 13 12 12 13 13 13 13 14 14 15 15 15 15 16 16 15 15
24 22 19 19 19 19 18 17 16 15 15 16 15 15 16 16 16 15 15 15 15 14 14 14 13 13 13 13 13 12 12 12 12 12 11 11 11 12 12 12 13 13 14 14 14 15 15 15 15
23 23 20 17 18 18 18 17 17 15 15 15 15 16 16 16 16 15 15 15 14 14 13 13 13 13 13 12 12 12 12 12 11 11 11 11 11 11 11 11 11 12 12 13 13 14 14 14 14
23 22 20 19 19 17 17 16 17 15 15 16 16 16 16 16 15 15 14 14 13 13 13 13 12 12 12 12 12 12 11 11 11 11 10 10 10 10 10 10 10 11 11 12 12 12 13 13 14
Wind_Speed
8 8 3 1 1 2 4 6 1 4 5 6 10 10 8 5 4 4 5 18 21 20 18 22 22 22 23 22 22 21 20 19 18 18 17 17 17 16 16 17 17 16 14 13 13 13 13 12 12
5 5 2 0 3 3 5 5 5 4 7 9 10 8 7 6 7 10 8 18 23 20 18 20 23 23 24 23 22 21 21 20 19 18 18 17 17 16 16 16 16 15 14 13 12 12 12 11 11
3 4 3 2 1 3 4 5 6 3 5 4 5 5 5 8 10 8 10 20 19 16 17 21 25 25 24 24 22 22 21 20 20 19 18 18 17 17 16 15 15 14 14 13 12 12 12 11 10
2 2 2 2 4 5 4 3 6 7 5 7 6 5 4 7 9 12 19 20 19 15 15 22 25 25 24 23 22 21 21 20 19 18 18 17 17 16 15 15 15 14 14 13 12 12 11 11 10
3 3 2 2 6 5 5 1 7 10 6 7 6 6 4 4 17 23 21 20 19 14 13 20 24 24 23 23 22 21 20 19 18 18 17 16 16 15 14 14 13 13 13 12 12 11 11 10 10
2 3 2 4 5 2 2 7 11 7 4 5 5 5 3 10 20 21 20 19 19 18 14 17 23 23 23 22 22 21 20 19 19 18 17 16 15 15 14 14 13 13 13 13 13 12 12 12 11
3 1 3 5 6 2 2 8 12 7 2 2 3 4 3 10 15 19 18 17 17 17 15 12 18 21 23 23 22 22 21 20 19 18 18 17 17 16 15 15 15 14 14 14 14 14 14 14 14
5 3 4 4 5 4 2 4 9 11 6 4 5 7 6 9 13 16 15 15 15 15 16 14 14 16 17 19 22 22 21 20 20 19 19 18 18 17 17 16 16 16 16 16 16 16 16 15 15
2 2 4 5 5 5 3 2 3 4 6 3 3 7 10 15 16 16 13 12 13 14 13 13 13 12 14 15 19 20 20 20 20 19 20 18 15 15 15 16 18 18 18 19 19 18 18 17 16
5 4 9 8 7 6 5 4 6 6 6 4 3 5 11 17 18 20 19 19 17 16 14 12 13 13 11 13 14 13 15 16 17 15 16 15 14 14 15 16 20 20 21 21 21 20 18 16 12
4 7 8 10 10 6 5 4 4 11 7 11 16 17 17 16 15 18 19 20 19 17 15 13 13 13 13 10 9 9 10 11 13 15 15 13 11 11 12 10 13 16 19 16 16 16 14 12 10
6 10 9 8 7 5 5 5 2 7 13 19 23 22 19 17 16 16 15 16 14 13 13 12 12 13 14 11 9 9 7 7 8 12 14 10 6 7 6 5 7 7 8 8 8 6 9 11 12
5 7 9 9 10 8 7 8 7 5 9 16 15 13 16 14 11 8 6 8 9 8 6 8 10 11 12 11 9 9 9 8 8 10 13 12 7 7 6 5 4 5 6 4 5 5 7 8 7
7 10 13 12 11 8 8 11 8 6 10 15 14 13 11 10 7 5 5 6 6 6 5 3 5 9 10 10 9 8 8 6 7 8 11 14 8 6 5 5 4 3 4 4 4 5 6 6 6
7 10 13 10 9 8 7 11 11 6 11 15 13 10 5 5 9 11 11 11 10 10 10 9 6 7 7 8 9 7 5 5 6 6 10 11 10 6 5 4 4 3 4 4 3 3 3 4 5
7 6 8 12 8 10 3 10 14 2 11 11 9 6 8 13 14 13 15 16 15 11 10 12 12 7 4 4 5 4 4 5 5 5 7 9 10 8 5 4 3 2 2 1 2 2 2 3 3
4 5 9 12 8 6 5 5 8 7 10 10 9 11 14 13 13 12 14 13 12 9 7 7 12 9 6 1 2 1 2 4 4 5 5 7 9 8 5 4 2 2 2 1 1 1 2 1 2
7 7 6 7 9 7 6 10 18 20 21 19 16 14 14 13 10 9 9 8 6 6 8 8 11 10 10 4 3 3 2 1 3 5 6 7 7 8 6 5 4 3 3 2 1 1 1 2 2
6 5 5 5 6 9 16 20 21 22 23 21 18 15 12 10 6 6 6 6 6 6 9 12 10 7 6 4 2 2 2 2 3 5 6 7 7 8 7 5 4 4 3 2 2 2 1 1 1
6 6 6 6 7 8 15 19 18 22 22 18 16 14 11 8 7 8 7 8 9 10 11 10 7 6 5 3 3 3 3 3 3 4 6 6 7 7 7 7 5 5 3 1 1 2 1 1 1
6 4 5 6 6 8 8 10 14 15 18 18 17 14 13 12 11 10 12 13 13 14 11 10 9 7 6 5 3 3 2 1 2 1 3 5 7 7 7 8 6 5 4 3 2 2 3 2 2
5 6 4 5 5 4 5 3 5 8 15 15 14 12 11 10 10 11 13 14 13 11 10 10 8 8 8 8 6 4 3 2 2 2 3 4 5 7 8 9 8 7 5 4 3 3 3 3 2
4 5 4 3 1 2 4 5 1 4 9 10 9 9 7 7 8 10 10 9 9 8 8 8 8 8 9 10 10 8 7 5 4 4 5 3 3 4 6 8 8 8 6 6 5 4 4 3 4
2 7 8 7 5 3 3 4 2 2 2 3 4 4 3 3 5 6 6 6 6 6 6 6 7 8 8 8 9 9 9 8 7 7 6 5 4 3 3 5 7 8 7 7 6 6 5 5 4
7 7 6 7 6 3 1 5 2 3 4 4 4 3 2 1 3 4 4 4 3 3 3 3 5 5 6 6 7 6 7 7 7 7 6 6 5 4 5 4 6 7 7 8 7 6 6 6 5
1 8 5 3 4 2 3 2 3 3 3 3 4 4 3 1 1 1 1 1 1 1 1 0 1 2 3 4 5 4 5 4 4 5 5 5 5 5 6 6 4 6 8 8 7 6 6 6 6
1 1 5 6 1 2 1 2 1 4 4 4 4 3 2 1 1 1 3 3 4 4 4 3 2 2 3 3 3 3 3 4 5 6 5 5 5 6 8 8 6 5 6 7 7 6 7 6 7
3 3 6 5 2 3 2 3 5 8 8 5 4 3 2 2 3 5 6 6 6 6 6 5 4 5 5 5 5 4 5 5 5 5 6 6 6 5 7 8 8 7 7 6 7 6 7 7 7
5 4 5 3 4 3 3 5 4 8 7 5 4 4 4 5 6 8 8 7 6 5 4 5 6 7 7 8 8 8 8 7 7 6 7 7 6 6 6 6 7 8 8 7 6 7 7 8 8
4 3 4 3 2 2 1 4 2 4 3 2 0 3 5 7 8 8 7 6 5 5 6 7 8 9 10 10 10 10 10 9 8 9 9 8 8 7 7 6 7 7 8 8 7 8 8 8 8
Wind_Direction
162 161 153 166 71 41 308 292 2 49 56 65 80 92 90 74 145 166 144 149 145 153 158 157 158 159 159 155 152 150 149 148 147 145 143 140 139 137 137 141 141 140 138 135 134 134 134 135 135
166 168 159 33 68 32 304 304 341 22 128 120 83 77 80 68 85 113 126 151 148 152 155 157 158 158 159 158 157 156 155 155 154 153 151 148 147 146 145 145 146 146 146 146 146 146 146 147 148
179 178 149 70 50 192 265 298 313 340 135 93 82 54 80 114 121 131 147 148 145 151 156 159 158 160 161 162 161 162 161 161 160 159 158 156 155 154 153 153 154 155 156 158 159 160 160 161 162
148 109 55 67 245 236 227 282 350 360 43 48 98 65 59 128 134 139 143 148 148 153 158 161 161 162 164 165 165 166 167 167 166 165 164 163 162 162 162 163 163 164 166 168 169 170 172 173 175
101 94 56 288 249 231 238 96 48 18 15 40 76 82 39 60 124 138 148 154 154 156 162 165 164 166 167 168 169 170 171 172 171 171 170 170 171 172 172 173 174 175 176 178 180 182 184 187 190
52 77 50 284 279 244 182 123 97 60 41 50 53 73 62 127 135 149 155 159 160 160 165 168 169 170 171 172 173 174 176 177 177 177 177 178 180 182 184 185 187 189 190 192 194 196 198 201 204
154 107 240 269 292 291 185 131 124 147 175 157 124 88 108 149 151 156 159 160 161 163 167 171 173 174 175 177 178 180 181 182 183 184 184 186 188 191 194 196 199 201 203 204 206 208 210 211 213
157 102 295 297 306 292 240 162 159 157 174 159 138 139 169 184 160 161 160 161 163 168 174 177 176 177 179 181 184 185 187 188 189 190 191 193 196 199 202 205 209 211 212 214 216 217 219 219 220
121 65 264 260 276 288 258 210 171 121 130 140 160 171 178 170 159 161 161 163 171 176 181 181 179 179 180 182 190 191 193 195 194 196 198 199 203 206 210 214 216 220 221 221 222 223 223 225 227
122 187 242 239 257 279 263 232 168 141 134 144 160 178 167 168 165 168 173 174 179 183 188 188 185 184 181 188 192 194 197 199 199 200 202 202 201 207 214 221 226 228 229 229 228 226 225 226 228
197 221 258 272 272 277 283 279 168 147 172 181 175 180 177 180 176 176 180 181 183 183 185 190 191 189 188 194 189 195 201 201 204 205 206 204 203 211 221 221 233 234 233 231 232 229 222 218 218
277 274 274 281 309 320 299 297 267 183 201 186 180 179 179 184 185 182 178 180 177 176 184 186 195 195 197 199 193 192 196 198 205 210 206 202 205 213 217 219 227 222 218 214 218 217 211 214 219
287 293 306 303 317 317 321 307 296 254 191 176 179 180 187 188 184 178 161 159 159 170 184 190 198 203 203 205 199 193 197 200 203 203 204 202 206 215 215 218 222 216 207 204 210 216 214 216 220
289 308 308 305 309 310 313 308 316 272 165 174 184 193 194 185 164 120 91 87 94 91 46 337 232 217 211 209 202 197 196 195 197 200 203 201 202 205 208 212 213 214 203 198 197 209 208 213 216
312 328 319 299 293 286 328 319 291 263 164 180 190 195 178 97 77 68 60 57 57 48 32 20 301 251 223 202 194 182 175 166 175 187 189 186 187 188 190 198 211 221 218 202 198 213 202 210 217
333 334 304 286 277 270 233 267 285 318 151 171 181 158 92 75 73 68 62 61 58 50 27 21 352 310 241 194 183 162 153 154 164 175 172 174 178 177 170 181 211 214 200 200 214 222 214 218 222
332 285 279 295 295 274 188 241 353 34 104 94 93 96 89 77 64 60 61 62 60 52 30 25 17 330 301 183 174 142 130 156 167 169 171 175 174 169 154 166 186 162 142 145 187 143 159 193 246
271 283 296 312 328 13 51 54 38 43 63 66 68 74 75 71 64 57 60 70 75 59 47 55 33 7 343 348 355 10 9 228 175 173 176 170 167 162 147 150 153 136 117 102 123 153 165 194 229
269 304 317 312 339 42 61 60 49 49 55 53 48 46 53 58 48 45 52 64 76 71 75 73 61 23 345 351 353 340 266 244 203 184 179 171 165 160 151 145 143 131 129 156 187 173 180 247 206
330 343 339 330 354 46 76 70 59 54 57 54 46 37 31 35 38 37 44 56 59 59 57 67 61 34 339 299 263 247 241 241 210 190 184 181 171 165 158 155 155 150 144 149 210 165 168 241 171
330 326 334 335 2 30 89 64 53 55 59 55 48 38 29 31 38 42 49 49 50 49 43 47 44 30 353 337 316 313 332 7 24 241 211 205 188 175 165 167 163 165 159 184 218 206 181 206 244
310 299 328 345 12 342 50 94 57 58 54 51 45 37 28 24 34 43 48 48 50 48 46 44 39 25 8 11 16 13 13 352 324 291 266 243 210 189 177 174 173 173 172 191 221 203 189 179 219
275 307 349 347 3 26 28 100 42 34 47 45 47 45 29 26 36 45 48 50 49 45 43 38 35 34 24 24 25 23 24 5 347 349 342 313 259 220 199 187 181 179 183 195 207 206 205 195 200
18 29 27 37 54 25 342 108 16 16 81 81 69 67 43 41 52 56 56 56 49 43 36 27 25 21 19 25 27 24 19 10 10 7 358 344 327 303 268 218 196 189 187 194 202 207 212 216 218
48 62 23 0 1 296 37 96 171 170 161 145 143 155 166 127 84 78 69 61 54 46 34 32 29 13 8 18 22 17 12 5 4 355 349 345 338 326 314 273 219 204 197 196 196 204 217 221 224
295 120 138 222 250 286 18 109 190 182 181 177 168 162 164 162 109 101 138 156 196 211 218 252 20 347 349 2 359 359 2 354 342 337 333 334 326 314 324 320 273 229 210 203 198 205 218 223 227
32 2 174 154 9 65 108 111 236 240 219 198 168 147 137 139 184 249 246 232 226 223 222 219 233 277 291 290 292 301 317 320 316 317 317 316 316 321 334 331 323 292 247 222 206 211 219 223 229
127 137 65 69 56 347 308 215 212 206 216 201 182 173 189 228 262 269 262 249 236 215 205 205 214 238 253 256 255 254 260 265 274 289 298 301 305 315 321 325 324 315 291 258 230 222 224 223 231
359 29 77 93 132 131 309 288 227 196 194 188 193 203 234 260 269 270 272 273 266 249 237 238 242 247 252 253 253 254 256 256 260 266 269 273 281 292 300 306 310 310 305 292 265 245 232 227 232
41 37 105 107 353 90 134 292 289 171 167 137 299 296 294 293 289 293 305 311 306 288 275 264 258 255 255 254 253 254 256 255 254 257 262 264 269 272 274 281 289 295 299 300 290 275 259 239 231
Height
1511 1511 1511 1511 1512 1516 1513 1496 1483 1479 1479 1480 1479 1480 1483 1487 1492 1500 1496 1497 1501 1504 1508 1512 1515 1517 1519 1520 1521 1522 1523 1524 1525 1526 1528 1529 1530 1532 1533 1534 1536 1537 1538 1539 1540 1541 1542 1543 1544
1511 1511 1511 1511 1514 1523 1514 1496 1489 1482 1481 1479 1480 1483 1484 1489 1489 1491 1493 1498 1501 1504 1507 1510 1514 1516 1518 1519 1520 1521 1523 1524 1525 1526 1527 1529 1530 1531 1533 1534 1535 1536 1538 1539 1540 1541 1542 1543 1544
1511 1510 1511 1511 1515 1520 1512 1497 1490 1485 1483 1479 1482 1485 1487 1490 1490 1491 1494 1498 1501 1503 1506 1509 1512 1514 1516 1518 1519 1520 1522 1523 1524 1525 1527 1528 1529 1531 1532 1533 1534 1536 1537 1538 1539 1540 1542 1543 1544
1511 1511 1511 1515 1515 1507 1500 1492 1490 1487 1484 1483 1483 1487 1490 1492 1492 1494 1496 1499 1501 1503 1506 1509 1511 1513 1515 1517 1518 1519 1521 1522 1523 1525 1526 1527 1529 1530 1531 1532 1533 1535 1536 1537 1538 1539 1540 1542 1543
1509 1509 1514 1518 1510 1497 1492 1488 1490 1492 1488 1489 1486 1489 1491 1493 1493 1495 1497 1499 1501 1503 1505 1508 1510 1512 1514 1515 1517 1518 1520 1521 1522 1524 1525 1526 1528 1529 1530 1531 1532 1533 1534 1535 1536 1538 1539 1540 1541
1508 1508 1519 1521 1506 1493 1491 1488 1489 1495 1494 1493 1491 1492 1494 1494 1494 1496 1498 1500 1502 1503 1505 1507 1509 1511 1513 1514 1516 1517 1518 1520 1522 1523 1524 1526 1527 1528 1529 1530 1531 1532 1533 1534 1534 1536 1537 1538 1539
1508 1510 1516 1512 1505 1495 1489 1486 1487 1491 1492 1491 1492 1494 1496 1496 1496 1498 1499 1501 1502 1503 1504 1506 1508 1510 1511 1513 1514 1516 1517 1519 1520 1522 1523 1524 1525 1526 1527 1529 1530 1531 1531 1532 1533 1534 1535 1536 1537
1504 1508 1511 1510 1503 1496 1487 1484 1482 1484 1487 1488 1489 1492 1495 1496 1497 1499 1500 1501 1502 1503 1503 1504 1506 1508 1510 1511 1513 1515 1516 1517 1518 1520 1521 1522 1523 1524 1525 1526 1527 1528 1529 1530 1531 1532 1533 1534 1535
1503 1511 1516 1508 1500 1492 1486 1485 1485 1484 1485 1486 1486 1486 1486 1491 1494 1496 1498 1499 1500 1501 1502 1503 1504 1506 1508 1510 1511 1513 1514 1516 1517 1518 1519 1520 1521 1522 1523 1524 1525 1526 1526 1527 1528 1529 1530 1531 1532
1500 1512 1505 1495 1490 1487 1484 1483 1482 1483 1484 1485 1484 1483 1484 1486 1488 1490 1491 1492 1494 1497 1499 1501 1503 1505 1506 1508 1509 1510 1512 1513 1514 1515 1516 1517 1518 1519 1520 1521 1522 1522 1523 1524 1525 1526 1527 1528 1528
1497 1500 1492 1487 1484 1482 1480 1478 1479 1479 1483 1480 1478 1478 1480 1481 1483 1485 1486 1487 1489 1494 1498 1500 1502 1504 1505 1506 1507 1508 1509 1510 1511 1512 1513 1514 1515 1516 1517 1518 1518 1519 1520 1520 1521 1522 1522 1523 1525
1496 1491 1487 1484 1481 1480 1478 1476 1476 1475 1473 1471 1472 1473 1475 1477 1479 1481 1483 1484 1488 1493 1497 1500 1503 1503 1504 1504 1505 1505 1507 1508 1509 1510 1511 1512 1513 1514 1514 1515 1515 1515 1516 1517 1518 1518 1519 1520 1521
1492 1488 1484 1481 1478 1477 1475 1474 1473 1470 1469 1470 1473 1474 1475 1476 1477 1480 1483 1486 1489 1493 1497 1499 1502 1503 1503 1504 1504 1504 1505 1506 1508 1509 1509 1510 1511 1511 1512 1512 1513 1513 1513 1513 1514 1514 1515 1516 1516
1491 1488 1483 1478 1475 1474 1474 1472 1471 1468 1469 1471 1472 1473 1475 1477 1479 1483 1485 1487 1490 1494 1497 1501 1501 1502 1502 1502 1503 1503 1503 1504 1505 1506 1507 1507 1508 1509 1509 1509 1509 1509 1509 1509 1510 1510 1511 1511 1511
1491 1489 1484 1476 1474 1471 1473 1475 1468 1466 1468 1470 1473 1475 1478 1482 1484 1486 1488 1490 1493 1495 1495 1496 1499 1497 1496 1498 1501 1501 1501 1502 1503 1504 1505 1505 1505 1506 1506 1506 1506 1506 1506 1506 1506 1506 1506 1506 1506
1492 1494 1497 1478 1472 1468 1477 1486 1468 1467 1467 1470 1474 1478 1483 1486 1487 1489 1490 1491 1492 1493 1494 1492 1490 1487 1487 1493 1498 1500 1500 1501 1502 1503 1503 1503 1503 1504 1503 1503 1503 1503 1502 1502 1502 1502 1502 1502 1502
1501 1506 1499 1483 1468 1466 1473 1483 1477 1472 1470 1475 1478 1482 1485 1488 1489 1490 1491 1492 1493 1491 1488 1484 1477 1477 1480 1485 1493 1498 1497 1499 1500 1502 1502 1501 1501 1501 1500 1500 1500 1500 1500 1499 1499 1499 1498 1498 1498
1507 1503 1496 1489 1473 1470 1476 1488 1490 1486 1482 1485 1486 1488 1490 1491 1492 1492 1492 1492 1491 1487 1483 1479 1474 1470 1474 1482 1489 1494 1495 1497 1499 1500 1500 1499 1499 1499 1498 1498 1498 1498 1497 1496 1496 1496 1495 1495 1494
1492 1493 1493 1484 1473 1478 1490 1498 1500 1497 1494 1497 1498 1499 1499 1498 1496 1494 1493 1491 1488 1483 1477 1476 1477 1475 1480 1484 1489 1492 1496 1496 1496 1497 1498 1498 1497 1497 1496 1496 1495 1495 1494 1493 1493 1492 1492 1491 1490
1487 1491 1491 1483 1475 1480 1494 1504 1504 1502 1502 1504 1505 1506 1506 1504 1499 1495 1492 1488 1485 1483 1480 1479 1481 1483 1486 1489 1490 1493 1495 1495 1495 1495 1496 1496 1495 1495 1495 1494 1493 1492 1491 1491 1491 1489 1489 1488 1487
1487 1489 1488 1486 1480 1482 1489 1508 1509 1508 1506 1505 1506 1507 1507 1506 1501 1495 1491 1487 1485 1485 1485 1485 1486 1487 1488 1489 1490 1492 1493 1494 1493 1493 1493 1493 1493 1493 1492 1492 1491 1490 1489 1489 1488 1487 1486 1485 1484
1493 1480 1479 1481 1491 1501 1496 1518 1517 1513 1510 1509 1510 1509 1509 1507 1503 1496 1493 1491 1490 1490 1490 1489 1490 1491 1490 1489 1490 1490 1491 1491 1491 1490 1489 1489 1489 1489 1489 1489 1488 1487 1487 1487 1486 1485 1484 1483 1482
1483 1477 1479 1483 1492 1502 1504 1517 1522 1514 1515 1515 1512 1511 1511 1509 1505 1500 1498 1497 1496 1495 1494 1493 1493 1492 1491 1489 1489 1488 1488 1488 1487 1486 1486 1485 1485 1485 1485 1485 1485 1484 1484 1484 1483 1483 1481 1480 1479
1477 1482 1488 1496 1505 1518 1513 1520 1526 1520 1518 1515 1513 1512 1512 1511 1508 1504 1502 1501 1500 1499 1497 1496 1494 1493 1491 1489 1488 1487 1485 1484 1483 1482 1481 1481 1481 1481 1480 1480 1480 1480 1481 1481 1480 1479 1478 1477 1476
1481 1502 1521 1523 1530 1527 1515 1521 1526 1517 1515 1513 1513 1513 1512 1511 1508 1506 1504 1503 1502 1500 1499 1497 1495 1493 1491 1489 1487 1485 1483 1481 1479 1477 1476 1475 1475 1475 1474 1474 1474 1475 1476 1476 1476 1476 1475 1473 1472
1485 1499 1523 1532 1532 1529 1519 1525 1523 1517 1515 1513 1513 1513 1512 1510 1508 1506 1505 1504 1502 1501 1499 1497 1495 1493 1490 1488 1486 1484 1481 1479 1477 1475 1473 1471 1469 1468 1468 1467 1467 1468 1470 1470 1471 1471 1470 1469 1468
1489 1495 1496 1515 1517 1529 1528 1527 1523 1518 1515 1514 1513 1512 1511 1509 1507 1506 1504 1503 1501 1498 1496 1494 1493 1491 1488 1485 1483 1481 1478 1476 1473 1471 1469 1467 1465 1463 1461 1461 1461 1461 1463 1464 1464 1465 1465 1465 1464
1485 1489 1503 1515 1527 1534 1528 1526 1526 1519 1515 1513 1513 1512 1511 1509 1506 1504 1502 1499 1497 1494 1492 1490 1488 1487 1484 1482 1479 1477 1475 1472 1470 1467 1465 1462 1460 1458 1456 1455 1454 1454 1456 1457 1457 1458 1459 1459 1458
1490 1493 1502 1514 1519 1530 1535 1530 1513 1513 1512 1513 1513 1512 1510 1508 1505 1502 1498 1495 1492 1490 1488 1486 1484 1482 1480 1477 1475 1472 1469 1467 1465 1462 1460 1457 1455 1453 1451 1450 1449 1448 1448 1448 1449 1450 1451 1452 1452
1490 1494 1502 1517 1521 1523 1532 1532 1511 1512 1513 1514 1514 1512 1510 1507 1503 1500 1496 1492 1489 1487 1484 1482 1479 1477 1474 1471 1468 1465 1463 1461 1458 1456 1454 1452 1450 1448 1446 1445 1443 1443 1442 1441 1441 1442 1443 1444 1445